Temp_Advection
nan nan nan nan nan nan nan nan nan nan nan nan nan nan nan nan nan nan nan nan nan nan nan nan nan nan nan nan nan nan nan nan nan nan nan nan nan nan nan nan nan nan nan nan
nan -0 0 0 1 1 1 0 0 1 1 -0 -0 0 -0 -0 -0 -0 -0 0 0 0 -0 -0 -0 -0 -1 -1 -0 -0 -1 -0 -0 -0 -0 -1 -1 -1 -1 -0 -0 -0 -0 nan
nan -0 -0 1 1 1 0 -0 1 0 0 -0 -0 -0 -0 -0 -0 -0 0 0 -0 -0 -0 -0 -0 -0 -0 -1 -1 -1 -1 -1 -0 -1 -1 -0 -1 -1 -1 -1 -0 -0 -0 nan
nan -0 1 0 -0 -0 0 0 0 -0 -0 -0 0 -0 -0 0 0 0 -0 -0 -0 -0 -0 -0 -0 0 -0 -1 -0 -0 -1 -0 -1 -1 -1 -1 -1 -1 -1 -1 -1 -1 -0 nan
nan 0 1 1 -0 -0 -0 0 -0 -0 -0 -0 -0 -1 -0 -0 -0 -0 -0 0 -0 -0 -0 -1 -0 -0 -0 -1 -1 -0 -0 -1 -0 -1 -1 -1 -1 -1 -1 -1 -1 -1 -0 nan
nan -0 1 -0 0 -0 -0 -0 0 0 0 -0 -0 0 -0 -1 0 0 0 0 0 0 0 -0 -0 -0 -1 -1 -1 -1 -0 -1 -0 -0 -0 -1 -1 -1 -1 -1 -1 -0 -1 nan
nan -0 1 -0 -0 -0 -0 0 -0 -0 -0 0 -0 -0 0 -0 -0 -0 0 0 0 0 0 0 -0 -0 -0 -1 -1 -1 -1 -1 -1 -0 -0 -1 -1 -0 -1 -1 -1 -1 -1 nan
nan -0 1 -0 0 0 0 -0 -0 -0 -0 -0 0 -0 -0 -0 -0 -0 -0 -0 -0 0 0 0 0 0 0 -0 -0 -1 -1 -1 -1 -0 -0 -0 -1 -1 -1 -1 -1 -1 -1 nan
nan 0 0 -0 0 0 0 0 -0 -0 -0 -0 -0 -0 -0 -0 -0 -1 -0 -0 -0 -0 -0 0 0 0 0 0 -0 -0 -1 -1 -1 -1 -0 -0 -0 -1 -1 -1 -1 -2 -1 nan
nan -0 -0 0 0 0 0 0 -0 -0 -0 -0 -0 -0 -0 -0 -0 -0 -0 -0 -0 -0 -0 -0 -0 -0 -0 0 -0 -0 -1 -1 -1 -1 -0 -0 -0 -0 -0 -0 -0 -1 -1 nan
nan -1 -1 -0 0 0 -0 0 0 0 -0 -0 -0 -0 0 -0 -0 -0 -0 -0 -0 -0 -0 -0 -0 -0 -0 -0 0 -0 -1 -1 -1 -1 -0 -0 -0 -0 -0 -0 -0 -1 -1 nan
nan 0 -0 -1 -0 0 0 -0 0 0 -0 0 0 -1 -0 0 -0 -0 -0 -0 -0 -0 -0 -0 -1 -1 -0 0 0 -0 -1 -1 -0 -0 -0 -0 -1 -1 -0 0 0 -0 -1 nan
nan 0 1 0 -1 -0 -0 0 1 1 0 -0 0 0 0 -0 0 0 0 -0 -0 -0 0 -0 -0 -1 -0 0 0 -0 -1 -1 -0 0 -0 -0 -0 -0 -1 -2 -1 0 1 nan
nan 1 -0 -1 0 0 0 -0 -0 0 -0 0 0 0 0 0 -0 -0 -0 0 0 -0 -0 -0 -0 -1 -0 0 0 -0 -0 0 -0 -1 -0 0 0 -0 0 -1 -3 -3 -1 nan
nan 1 1 1 0 -1 0 1 -0 -1 -0 0 0 0 -0 -0 -1 -1 -0 0 0 -0 -0 -0 -1 -1 0 0 0 -0 -0 -0 -0 -0 -0 -0 0 0 0 -0 -1 -3 -3 nan
nan 0 1 0 -0 -0 -0 0 0 -0 -0 -0 0 -0 -0 -0 -0 -1 -1 0 -0 -1 -1 -0 -1 -0 0 -0 -0 -0 -0 -0 -0 -1 -0 -0 -0 -0 -0 -0 -1 -1 -1 nan
nan 0 0 1 0 -0 -0 0 0 0 0 0 -0 0 -0 -0 0 0 -0 -0 0 -0 -1 -1 -1 -1 -0 -0 0 0 -0 -0 -1 -1 -0 0 0 0 0 -0 -0 -1 -1 nan
nan 1 1 1 0 0 0 0 -0 0 0 0 0 0 0 0 0 0 0 0 0 -0 -0 -0 -0 -1 -0 -0 0 0 -0 -0 -0 -0 -0 0 -0 -0 0 0 -0 -1 -1 nan
nan 1 1 1 1 1 1 0 0 0 0 0 0 0 0 0 0 0 0 0 0 -1 -0 1 -0 -1 -0 0 -0 -0 -0 -0 -0 -0 -0 0 0 -0 -0 0 -0 -1 -1 nan
nan 1 0 0 1 1 0 0 1 0 1 0 0 0 0 -0 -0 -0 0 0 0 0 -0 -0 -0 -0 -0 -0 -0 -1 -0 -0 -0 -0 0 0 -0 0 0 0 -0 -0 -1 nan
nan 1 1 1 0 1 1 1 0 0 1 1 1 0 0 0 0 -0 -0 -1 -0 1 -0 -0 -0 -0 0 0 -0 -1 -0 -0 -0 -0 0 0 -0 -0 -0 -0 -0 -0 -1 nan
nan 1 1 1 1 0 1 1 1 1 1 1 1 1 1 1 0 0 0 -1 -0 0 -0 -0 0 -0 -0 -0 -0 -0 -0 -0 -0 -0 0 0 0 -0 -0 -0 -0 -0 -0 nan
nan 1 1 1 1 1 0 1 1 1 1 1 1 1 1 1 1 1 -1 -0 1 -0 -0 0 -0 -1 -0 -0 -0 0 -0 -0 -0 -0 0 0 -0 -0 -0 -0 -0 -0 -1 nan
nan 1 1 1 1 1 0 1 1 1 1 0 1 1 1 1 1 1 1 0 -1 -1 -0 0 -0 -0 -0 0 0 0 -0 -0 0 0 0 -0 -0 -0 -0 -0 -0 -0 -0 nan
nan 0 0 0 1 1 1 0 1 0 1 1 0 0 1 1 0 0 0 1 0 -0 -0 -0 -0 -0 0 0 0 0 0 0 0 -0 -0 -0 -0 -0 -0 -0 -0 -0 -0 nan
nan 0 0 0 0 1 1 1 1 0 0 0 1 0 0 0 1 0 1 0 0 0 0 0 0 -0 -0 0 0 0 -0 0 0 -0 -0 -0 -1 -0 -0 -0 -0 -0 -0 nan
nan nan nan nan nan nan nan nan nan nan nan nan nan nan nan nan nan nan nan nan nan nan nan nan nan nan nan nan nan nan nan nan nan nan nan nan nan nan nan nan nan nan nan nan
Wind_Speed
12 13 10 15 13 10 15 17 16 22 19 17 5 5 10 7 2 5 6 6 6 10 15 16 18 18 18 17 18 19 20 21 22 24 26 27 29 30 31 32 33 33 34 36
17 13 17 24 17 12 14 12 18 18 12 2 7 10 9 8 7 6 5 6 11 15 16 18 19 20 20 19 19 20 21 23 23 24 26 28 29 31 32 33 33 33 34 35
23 5 12 15 9 7 3 2 4 4 1 6 4 7 11 16 13 11 10 13 16 17 19 20 20 21 21 21 21 21 22 23 23 24 27 28 30 32 33 33 33 34 35 34
12 4 8 4 4 6 0 3 1 3 3 6 9 14 22 18 13 11 12 18 21 22 22 21 21 20 22 22 22 22 23 24 24 25 27 29 31 32 33 32 33 34 35 34
5 5 10 6 5 4 3 2 2 1 6 10 14 18 2 3 6 15 21 20 23 25 25 24 23 24 25 24 23 23 24 25 25 26 28 30 32 32 32 33 34 34 34 34
3 6 7 1 3 3 5 3 4 4 6 10 13 4 3 16 23 21 22 22 23 25 25 26 28 25 26 26 25 25 25 26 26 27 28 30 31 32 32 32 34 35 35 34
7 9 6 2 2 2 2 3 9 10 11 11 5 13 24 25 25 22 22 23 24 23 27 27 27 27 27 27 29 28 27 28 28 27 28 30 31 30 31 33 35 35 35 35
3 3 9 2 2 4 2 8 10 13 13 16 19 22 22 23 24 24 25 25 24 25 26 25 26 25 27 28 30 30 30 29 30 29 28 30 29 29 32 35 35 37 36 36
4 4 4 3 7 12 11 12 13 16 20 21 23 23 24 26 27 27 26 25 26 26 27 26 25 26 27 30 29 31 32 31 31 30 29 27 29 30 34 34 37 37 35 41
5 3 3 7 11 12 13 12 17 19 23 24 25 25 28 28 28 28 27 27 27 28 29 30 29 25 28 32 31 33 32 31 31 31 30 27 26 28 33 34 39 35 39 40
6 11 15 9 6 9 20 24 28 30 29 27 27 33 32 32 32 30 34 34 32 31 34 33 28 32 35 32 31 30 30 31 31 31 30 29 28 30 29 34 30 35 37 38
4 5 10 22 26 24 34 38 35 32 31 33 34 36 35 36 34 36 38 35 33 32 32 35 36 35 33 29 27 27 30 30 30 30 29 28 30 33 33 29 31 29 29 30
14 19 27 37 37 37 34 29 33 35 37 41 41 39 38 39 37 34 32 34 35 36 35 35 34 34 30 28 26 26 29 30 30 28 27 28 27 32 39 43 32 29 29 30
25 27 31 35 32 34 33 41 42 40 37 36 37 36 34 35 35 35 35 33 32 33 34 34 34 33 29 26 25 26 27 27 27 27 23 24 27 28 36 38 38 39 31 32
26 23 32 38 39 42 41 39 39 39 38 38 37 37 37 38 37 36 34 34 34 33 33 32 31 32 27 24 25 26 26 26 26 22 24 23 26 33 33 34 33 37 36 33
34 35 38 40 42 41 37 36 35 38 37 39 38 38 37 37 37 37 36 34 34 34 31 30 31 29 25 23 24 24 24 23 22 22 23 25 26 29 32 31 37 34 34 36
35 37 33 35 36 42 43 41 39 41 40 38 38 37 36 37 38 39 39 37 35 36 36 35 34 28 24 22 19 21 23 23 19 21 21 24 25 28 29 35 32 32 32 32
32 36 37 38 40 41 42 39 38 38 39 40 39 37 36 36 38 38 37 36 37 37 35 32 30 27 21 19 22 25 24 22 19 19 21 24 24 25 30 32 30 31 31 31
36 37 39 40 40 40 42 42 41 40 40 39 38 38 38 37 37 37 36 34 35 35 37 30 25 22 25 27 24 23 23 24 23 23 22 22 23 25 31 29 29 29 29 30
36 36 37 39 39 38 40 41 40 41 40 38 37 37 37 36 35 35 34 35 37 37 34 31 26 25 23 23 20 21 23 24 21 20 23 20 21 26 28 28 26 28 27 27
40 39 39 40 40 40 39 39 38 40 40 38 37 38 38 37 35 35 34 35 37 31 26 23 23 24 25 25 24 24 20 21 21 22 26 25 23 26 27 26 26 26 25 26
41 41 41 40 40 41 38 37 36 37 37 36 36 36 36 37 35 34 33 35 33 26 23 24 24 22 20 18 20 20 21 21 26 21 22 20 22 24 26 24 25 24 25 24
43 42 41 40 38 37 35 33 31 31 32 33 33 32 32 32 31 31 33 28 25 24 22 23 21 19 19 20 23 22 23 19 20 20 18 19 20 23 24 22 22 23 23 22
43 41 40 38 35 35 37 35 33 32 31 29 30 28 27 29 30 27 26 23 21 22 23 22 20 18 17 21 21 21 18 20 22 18 18 18 19 21 21 20 20 20 20 19
40 39 37 36 38 38 37 35 35 33 33 34 30 29 27 26 28 25 22 21 19 19 22 23 19 17 18 15 12 14 16 18 19 19 19 19 21 22 22 17 17 19 19 18
40 39 35 37 36 35 36 36 35 34 32 30 31 30 29 28 26 25 25 23 22 20 19 18 18 17 17 16 17 18 20 22 21 22 22 24 23 21 19 16 15 16 16 15
38 34 35 35 38 37 36 32 34 36 32 29 31 32 23 19 22 21 22 23 23 22 21 20 20 18 20 20 20 21 21 22 23 23 21 17 17 17 15 13 13 14 14 14
Wind_Direction
264 278 270 262 259 239 237 248 250 280 274 293 42 335 334 332 347 298 284 249 252 278 293 298 299 302 303 304 305 307 310 311 313 314 314 314 314 315 314 313 311 311 310 308
272 274 272 270 265 257 256 259 263 273 286 34 13 3 350 1 331 313 302 282 285 293 294 300 304 306 308 308 311 313 313 314 315 314 315 315 315 316 315 313 310 309 310 309
275 283 310 283 242 244 281 71 155 251 238 10 341 339 321 309 303 302 277 287 298 300 300 303 305 308 310 312 314 314 314 315 315 316 315 317 317 317 316 314 312 310 311 313
282 350 262 248 17 63 310 198 66 344 346 336 324 323 308 299 285 276 287 305 310 309 306 304 304 305 305 307 310 312 314 314 315 315 316 318 317 317 317 316 314 313 313 315
250 240 274 264 27 32 69 286 134 289 333 341 337 322 40 21 343 313 312 311 310 309 312 309 308 311 309 308 309 310 313 312 317 317 316 318 317 317 319 317 317 314 313 317
354 284 275 137 65 127 118 272 30 23 343 329 330 317 257 321 322 315 311 309 308 310 311 311 314 312 312 311 311 313 314 314 316 318 316 316 317 317 318 320 317 317 315 315
252 268 272 62 300 104 85 244 328 331 317 316 284 286 299 305 307 306 303 303 306 303 302 307 312 315 311 313 313 314 315 314 314 316 316 317 317 317 319 323 320 316 318 317
294 300 274 46 221 218 288 312 308 315 314 309 301 300 300 302 303 306 305 305 305 304 302 305 309 310 306 303 309 311 311 313 316 319 317 318 316 316 324 321 321 321 321 322
173 238 157 242 256 276 288 290 304 306 304 302 296 296 298 300 302 302 301 301 302 301 299 298 299 302 297 303 306 307 309 311 313 316 315 315 321 316 320 322 322 322 324 323
25 337 299 277 266 286 271 284 291 293 296 295 292 295 296 295 295 296 296 297 298 297 294 295 295 296 291 298 300 304 306 308 311 314 315 315 313 318 317 321 320 321 321 312
266 291 313 281 264 268 294 290 290 292 291 284 286 286 287 288 288 287 289 293 291 289 290 292 295 288 295 301 303 302 303 306 309 312 313 316 317 315 315 312 315 313 310 312
252 227 276 276 289 287 291 292 293 293 293 292 291 292 295 291 287 287 294 297 295 293 291 293 293 295 299 303 303 302 302 305 308 310 311 313 312 316 315 312 314 312 309 310
254 282 281 285 290 294 292 291 297 296 294 292 294 292 293 292 293 293 287 286 288 293 293 295 296 297 301 305 303 299 299 303 305 306 308 309 314 317 317 322 324 329 330 323
286 287 281 290 286 300 291 293 297 294 292 291 291 292 290 291 293 291 291 295 295 294 293 294 295 296 301 301 298 295 295 297 295 301 306 313 316 309 312 322 325 331 337 340
290 286 285 299 297 298 301 300 298 296 299 300 300 297 296 294 294 294 295 296 296 294 293 294 294 293 299 298 294 294 294 294 298 302 307 307 298 306 318 321 323 325 332 339
302 297 297 293 300 303 303 301 294 292 290 289 290 291 293 294 296 296 297 298 297 297 297 296 293 296 298 293 290 290 292 294 290 289 291 296 304 311 322 325 321 326 331 337
301 296 296 291 291 295 297 298 294 293 294 289 288 290 289 287 288 287 289 294 293 294 297 295 294 297 295 292 289 292 295 295 292 285 286 303 305 315 323 318 322 327 330 338
302 300 296 291 291 291 291 289 288 287 285 287 287 286 284 282 281 283 284 287 288 291 292 293 297 295 293 294 291 291 293 294 294 292 293 298 308 314 315 323 325 327 332 337
303 299 299 296 293 290 290 290 290 289 288 287 286 284 283 281 281 281 283 283 283 284 292 295 293 282 271 272 281 281 285 288 289 286 284 294 299 316 320 324 324 326 330 335
305 305 302 300 301 297 294 298 297 296 296 293 291 288 285 284 283 282 281 278 280 281 290 292 290 287 286 289 282 275 277 278 276 276 279 293 297 312 322 323 323 327 332 336
312 313 310 309 308 309 305 303 300 298 304 299 291 291 291 293 290 285 280 278 290 290 289 287 282 279 276 276 274 272 271 271 266 278 279 281 298 313 321 323 326 329 333 337
316 315 314 314 311 310 313 311 305 303 303 301 299 295 293 292 293 289 284 280 292 290 284 283 282 284 282 281 276 274 275 277 277 271 276 281 298 311 318 322 325 329 335 336
318 318 316 315 314 316 318 319 320 317 312 311 309 306 302 300 297 288 288 297 284 279 275 277 279 280 279 276 278 277 275 275 267 281 274 283 299 311 318 321 323 329 332 337
319 319 319 320 321 321 319 326 324 321 317 314 312 314 309 305 305 303 304 295 282 274 272 278 281 277 277 278 277 278 281 270 266 262 271 287 299 306 314 318 321 327 332 336
317 321 323 323 320 317 317 320 322 322 320 317 316 316 314 309 297 312 304 301 291 281 272 269 269 274 275 273 263 256 251 252 259 270 283 291 297 305 310 313 318 324 332 335
325 324 322 322 320 320 319 319 314 319 318 312 311 316 317 313 310 303 300 296 293 291 285 283 278 275 277 277 278 274 270 271 269 265 268 273 280 290 299 305 311 320 327 332
325 325 323 320 322 323 322 319 320 318 324 325 319 319 323 327 319 304 298 296 297 294 290 286 281 272 269 272 269 267 268 267 264 271 283 284 275 275 287 296 308 317 325 328
Height
1533 1533 1537 1532 1533 1535 1533 1529 1529 1514 1521 1519 1532 1531 1530 1528 1526 1526 1527 1528 1526 1524 1524 1522 1520 1520 1517 1515 1513 1510 1507 1504 1501 1498 1495 1491 1487 1483 1479 1475 1470 1466 1460 1456
1528 1531 1531 1525 1524 1526 1524 1524 1519 1517 1521 1532 1531 1530 1530 1529 1528 1527 1525 1524 1524 1523 1521 1519 1517 1515 1512 1510 1507 1504 1500 1497 1495 1491 1488 1485 1481 1476 1472 1467 1463 1458 1453 1448
1520 1531 1529 1527 1528 1525 1529 1531 1536 1532 1534 1531 1531 1530 1531 1529 1526 1525 1523 1522 1521 1519 1517 1515 1513 1510 1506 1503 1500 1497 1494 1492 1489 1485 1481 1478 1474 1470 1465 1459 1454 1450 1445 1440
1527 1537 1545 1532 1529 1527 1532 1536 1534 1534 1532 1532 1530 1528 1525 1524 1522 1522 1521 1519 1517 1515 1512 1510 1507 1504 1500 1498 1495 1492 1489 1486 1483 1480 1475 1472 1468 1463 1458 1452 1447 1442 1436 1432
1536 1535 1524 1533 1532 1536 1538 1534 1533 1535 1532 1531 1529 1525 1522 1521 1521 1520 1517 1514 1512 1509 1506 1503 1501 1497 1493 1491 1488 1486 1483 1480 1477 1473 1468 1465 1460 1456 1451 1445 1439 1434 1429 1423
1547 1539 1531 1541 1537 1538 1539 1540 1534 1533 1532 1530 1528 1529 1521 1519 1518 1515 1513 1511 1507 1504 1501 1498 1495 1492 1488 1485 1482 1480 1477 1473 1470 1467 1462 1458 1454 1449 1444 1439 1432 1427 1421 1417
1537 1531 1523 1537 1537 1537 1543 1539 1533 1532 1530 1528 1527 1525 1520 1517 1514 1512 1509 1505 1503 1499 1495 1492 1489 1486 1482 1479 1476 1474 1470 1467 1463 1461 1456 1452 1447 1443 1437 1432 1426 1420 1414 1408
1538 1543 1533 1536 1536 1538 1536 1533 1532 1529 1527 1525 1522 1519 1516 1513 1510 1506 1503 1499 1496 1492 1489 1487 1484 1481 1477 1474 1472 1468 1464 1460 1456 1453 1449 1445 1441 1435 1431 1427 1419 1413 1406 1399
1548 1538 1534 1534 1534 1533 1532 1529 1528 1526 1524 1521 1517 1513 1510 1506 1503 1500 1497 1493 1490 1487 1483 1481 1479 1476 1472 1468 1465 1461 1457 1453 1449 1446 1442 1439 1434 1430 1425 1420 1414 1406 1400 1393
1545 1536 1532 1532 1531 1530 1528 1525 1523 1522 1519 1516 1511 1507 1503 1500 1496 1493 1490 1486 1484 1480 1476 1473 1471 1469 1466 1462 1459 1454 1449 1445 1442 1438 1434 1432 1429 1425 1420 1414 1408 1402 1395 1389
1543 1532 1529 1526 1526 1525 1523 1521 1518 1515 1512 1509 1505 1499 1497 1492 1488 1485 1482 1479 1476 1473 1469 1465 1463 1460 1458 1455 1451 1446 1442 1439 1435 1432 1428 1424 1422 1419 1415 1410 1406 1399 1392 1385
1539 1532 1531 1524 1522 1520 1517 1513 1509 1506 1501 1499 1496 1491 1487 1482 1479 1476 1472 1469 1466 1463 1460 1457 1454 1451 1448 1447 1443 1439 1435 1432 1429 1425 1422 1419 1415 1409 1408 1404 1398 1392 1387 1381
1531 1528 1525 1518 1514 1511 1507 1503 1500 1497 1493 1487 1483 1481 1477 1473 1469 1466 1464 1460 1457 1454 1450 1447 1444 1441 1440 1438 1435 1432 1428 1425 1422 1420 1416 1414 1410 1405 1396 1389 1388 1383 1377 1371
1525 1523 1515 1510 1504 1502 1498 1494 1490 1486 1481 1477 1473 1470 1467 1463 1459 1456 1453 1451 1447 1444 1440 1438 1435 1432 1432 1430 1427 1424 1422 1419 1417 1413 1411 1408 1405 1401 1396 1388 1377 1369 1367 1361
1517 1515 1507 1501 1496 1491 1488 1484 1478 1473 1469 1465 1463 1459 1456 1452 1448 1445 1443 1440 1437 1434 1431 1429 1426 1423 1423 1422 1419 1416 1414 1412 1410 1407 1405 1403 1400 1396 1391 1384 1377 1370 1361 1355
1509 1505 1500 1494 1487 1482 1478 1473 1469 1463 1461 1457 1454 1450 1446 1442 1438 1435 1433 1430 1427 1424 1422 1420 1417 1415 1415 1413 1411 1409 1407 1405 1405 1403 1400 1398 1394 1390 1385 1379 1373 1366 1358 1351
1501 1492 1490 1484 1480 1474 1469 1465 1461 1455 1451 1447 1443 1440 1438 1434 1430 1426 1423 1421 1419 1415 1413 1410 1407 1407 1406 1405 1403 1402 1400 1398 1397 1397 1394 1392 1389 1385 1380 1375 1368 1362 1355 1349
1493 1486 1481 1476 1470 1464 1458 1456 1452 1447 1443 1438 1435 1432 1428 1425 1420 1417 1414 1412 1410 1406 1404 1402 1400 1398 1398 1397 1396 1395 1393 1391 1391 1389 1388 1387 1384 1381 1376 1370 1364 1357 1351 1344
1486 1479 1473 1468 1462 1456 1450 1444 1440 1436 1432 1429 1424 1420 1417 1413 1410 1407 1405 1403 1400 1396 1392 1394 1393 1393 1391 1390 1390 1388 1386 1385 1384 1384 1383 1381 1379 1375 1371 1365 1359 1354 1348 1341
1476 1470 1465 1458 1453 1448 1440 1435 1431 1426 1421 1418 1414 1409 1405 1403 1400 1398 1396 1392 1389 1387 1386 1385 1384 1382 1382 1381 1382 1381 1379 1379 1378 1377 1376 1375 1373 1370 1366 1361 1356 1350 1345 1339
1467 1460 1454 1448 1442 1437 1432 1426 1421 1415 1410 1408 1404 1399 1395 1392 1390 1388 1385 1381 1377 1379 1378 1377 1376 1375 1374 1374 1374 1373 1372 1371 1371 1371 1370 1369 1368 1365 1361 1356 1352 1347 1342 1336
1458 1452 1445 1439 1433 1427 1422 1417 1413 1407 1403 1398 1395 1391 1387 1382 1380 1377 1375 1372 1370 1370 1370 1369 1368 1367 1367 1367 1366 1365 1365 1365 1364 1364 1365 1364 1363 1360 1356 1352 1348 1344 1339 1335
1450 1444 1437 1431 1426 1419 1413 1409 1404 1400 1395 1390 1386 1382 1379 1375 1372 1369 1364 1364 1363 1362 1362 1361 1361 1361 1361 1360 1359 1359 1358 1358 1359 1359 1359 1359 1358 1355 1352 1349 1345 1341 1337 1332
1443 1436 1430 1424 1418 1412 1405 1400 1396 1392 1387 1383 1378 1375 1371 1367 1363 1361 1358 1356 1356 1355 1354 1354 1354 1354 1354 1352 1351 1351 1351 1351 1352 1353 1353 1354 1352 1350 1348 1346 1342 1339 1335 1331
1436 1429 1423 1417 1411 1405 1399 1394 1389 1384 1379 1374 1370 1367 1364 1360 1357 1353 1351 1349 1348 1348 1347 1347 1348 1348 1347 1345 1345 1345 1346 1346 1347 1348 1348 1348 1347 1345 1344 1342 1340 1336 1332 1329
1430 1423 1417 1412 1405 1399 1393 1388 1382 1377 1372 1367 1364 1360 1356 1352 1349 1346 1344 1343 1342 1341 1340 1340 1340 1341 1341 1340 1340 1340 1340 1340 1341 1342 1343 1342 1342 1341 1340 1338 1337 1334 1331 1328
1425 1419 1411 1405 1400 1394 1388 1383 1378 1371 1366 1361 1356 1351 1348 1346 1343 1341 1339 1337 1335 1334 1334 1334 1334 1334 1334 1334 1334 1334 1334 1334 1334 1335 1335 1335 1335 1335 1335 1335 1334 1331 1329 1326